Showing default

GONETS D1 6, 24730

Orbit data source: Space-Track

GONETS D1 6, 24730 is a payload satellite owned by Gonets (CIS) in LEO that was launched on Fri, 14 Feb 1997 UTC via a TSIKLON-3 launch vehicle from the Plesetsk Missile And Space Complex (PKMTR). Payload-class satellites include a variety of spacecraft equipped with specific instruments for various scientific and technological missions. These include communications satellites like Starlink; space stations such as the ISS; scientific satellites like the Hubble; Earth observation satellites from companies like Planet Labs, Umbra, and HawkEye 360; GPS; miniature CubeSats for education and research; and military/defense satellites.

Loading next visibility...
Identifier
24730, 1997-006F
Orbit
LEO
Country
Flag of CISCIS
Related business
Manufacturer
NPO PM
Mission
Non-operational Civil Communications
Bus & Motor
STRELA-3, Unknown motor
Mass
225 kg wet, 225 kg dry
Launch date (UTC)
1997-02-14 (29 years ago)
Launch vehicle
TSIKLON-3
Launch site
Plesetsk Missile And Space Complex (PKMTR)
Object type
Payload
Rocket body
Debris
Shape & HBR
Cyl + 1 Ant, 3.5 m
Radar Cross Section
1.798 m², Medium (>0.1 m² and < 1m²)

Expand to show TLE details & history
Last TLE update: 1 day ago

TLE from 1 day ago
0 GONETS D1 6
1 24730U 97006F   25259.94282267  .00000047  00000-0  20315-3 0  9996
2 24730  82.6032  70.8127 0002227 194.1330 165.9700 12.62488998317194
Epoch: 2025-09-16T22:37Z
TLE epoch observation values (Epoch: 2025-09-16T22:37:39.878Z)
Latitude
0.00004°
Longitude
95.27067°
Altitude
1,417.102 km
Speed
7.151 km/s
True Right ascension
04h 43m 15s
True Declination
0° 00' 00"
Sunlit
Object was in daylight at epoch
Visualization orbit readout
Latitude
Unknown
Longitude
Unknown
Altitude
Unknown
Speed
Unknown
Apparent Right ascension
Unknown
Apparent Declination
Unknown
Sunlit
N/A
Visualization observer readout
Local Sidereal Time
16:49:33
Azimuth
Unknown
Elevation
Unknown
Doppler factor
Unknown
Orbital elements
Apogee altitude
1,411.742 km
Perigee altitude
1,408.273 km
Semi-major axis
7,788.144 km
Eccentricity
0.00022
Inclination
82.6032°
RAAN
70.8127°
Arg. of periapsis
194.133°
True anomaly
165.97619°
Mean anomaly
165.97°
Eccentric anomaly
165.97309°
Mean motion
3.15785 °/min
Orbital period
114 mins
BSTAR
0.00020315
Loading maneuver chart data...
Computing Atmospheric mass density...
Loading historical data...
Loading historical data...
Loading historical data...
Loading historical data...
Loading historical data...
Loading historical data...
Loading historical data...

Documentation

Showing up to 5 results
|